This demonstration page uses our WeatherBlox Daily Observations layout. Learn more.

Left ArrowRight Arrow

Hourly Observations for January 6, 2022

Temp ( °F °C ) Dew Point ( °F °C ) Humidity (%) Winds ( mph kmh ) Pressure ( in mb ) Visibility ( mi km ) Precip ( " mm )
12:52 am 00:52 Mostly Cloudy 6 -14.4 -4 -20 63 63 NNW 16 26 30.35 1028 10 16 0.00 0.00
1:52 am 01:52 Mostly Cloudy 4 -15.6 -5 -20.6 66 66 NNW 16 26 30.38 1029 10 16 0.00 0.00
2:52 am 02:52 Mostly Cloudy 3 -16.1 -6 -21.1 66 66 NNW 17 28 30.39 1029 10 16 0.00 0.00
3:52 am 03:52 Mostly Cloudy 2 -16.7 -7 -21.7 65 65 NW 20 31 30.40 1029 10 16 0.00 0.00
4:52 am 04:52 Mostly Cloudy 1 -17.2 -7 -21.7 68 68 NNW 18 30 30.42 1030 10 16 0.00 0.00
5:52 am 05:52 Partly Cloudy 0 -17.8 -7 -21.7 72 72 NW 15 24 30.44 1031 10 16 0.00 0.00
6:52 am 06:52 Partly Cloudy 0 -17.8 -8 -22.2 69 69 NW 12 19 30.45 1031 10 16 0.00 0.00
7:52 am 07:52 Mostly Sunny -1 -18.3 -9 -22.8 68 68 NW 14 22 30.46 1032 10 16 0.00 0.00
8:52 am 08:52 Partly Cloudy 0 -17.8 -9 -22.8 65 65 NW 15 24 30.47 1032 10 16 0.00 0.00
9:52 am 09:52 Partly Cloudy 1 -17.2 -11 -23.9 56 56 NNW 17 28 30.49 1032 10 16 0.00 0.00
10:52 am 10:52 Partly Cloudy 2 -16.7 -10 -23.3 57 57 NW 15 24 30.50 1033 10 16 0.00 0.00
11:52 am 11:52 Partly Cloudy 3 -16.1 -9 -22.8 57 57 WNW 16 26 30.46 1032 10 16 0.00 0.00
12:52 pm 12:52 Mostly Sunny 5 -15 -9 -22.8 52 52 NW 14 22 30.43 1030 10 16 0.00 0.00
1:52 pm 13:52 Mostly Sunny 8 -13.3 -8 -22.2 47 47 NW 15 24 30.40 1029 10 16 0.00 0.00
2:52 pm 14:52 Mostly Sunny 8 -13.3 -8 -22.2 47 47 NW 14 22 30.39 1029 10 16 0.00 0.00
3:52 pm 15:52 Partly Cloudy 8 -13.3 -8 -22.2 47 47 NNW 12 19 30.38 1029 10 16 0.00 0.00
4:52 pm 16:52 Partly Cloudy 7 -13.9 -8 -22.2 50 50 NNW 12 19 30.39 1029 10 16 0.00 0.00
5:52 pm 17:52 Partly Cloudy 3 -16.1 -7 -21.7 62 62 NW 8 13 30.38 1029 10 16 0.00 0.00
6:52 pm 18:52 Partly Cloudy 4 -15.6 -6 -21.1 63 63 NNW 7 11 30.38 1029 10 16 0.00 0.00
7:52 pm 19:52 Mostly Clear 3 -16.1 -7 -21.7 62 62 NNW 8 13 30.39 1029 10 16 0.00 0.00
8:52 pm 20:52 Mostly Clear 2 -16.7 -8 -22.2 63 63 N 8 13 30.40 1029 10 16 0.00 0.00
9:52 pm 21:52 Mostly Clear 2 -16.7 -8 -22.2 63 63 N 6 9 30.39 1029 10 16 0.00 0.00
10:52 pm 22:52 Mostly Cloudy 3 -16.1 -9 -22.8 57 57 N 6 9 30.41 1030 10 16 0.00 0.00
11:52 pm 23:52 Mostly Cloudy 3 -16.1 -9 -22.8 57 57 NE 5 7 30.37 1028 10 16 0.00 0.00

Powered by AerisWeather